This is the latest recevied weather packets stored in our database for station/object KJ5EHN. If no packets are shown the sender has not sent any weather packets the latest 10 day(s).
| Time | Temp. | Humidity | Pressure | Rain* | Wind** | Luminosity | Snow |
|---|---|---|---|---|---|---|---|
| 1777585290 | 17.78° C | 69% | 1013.9 hPa | 0 mm | - | - | - |
| 1777584984 | 17.78° C | 68% | 1014 hPa | 0 mm | - | - | - |
| 1777584682 | 17.78° C | 69% | 1014 hPa | 0 mm | - | - | - |
| 1777584379 | 17.78° C | 69% | 1013.9 hPa | 0 mm | - | - | - |
| 1777584075 | 17.78° C | 69% | 1013.8 hPa | 0 mm | - | - | - |
| 1777583769 | 17.78° C | 68% | 1014.1 hPa | 0 mm | - | - | - |
| 1777583470 | 17.78° C | 68% | 1014.1 hPa | 0 mm | - | - | - |
| 1777583169 | 17.78° C | 68% | 1014.4 hPa | 0 mm | - | - | - |
| 1777582865 | 17.78° C | 67% | 1014.3 hPa | 0 mm | - | - | - |
| 1777582562 | 17.78° C | 67% | 1014 hPa | 0 mm | - | - | - |
| 1777582257 | 17.78° C | 66% | 1014.1 hPa | 0 mm | - | - | - |
| 1777581955 | 17.78° C | 67% | 1014.2 hPa | 0 mm | - | - | - |
| 1777581650 | 17.78° C | 67% | 1014.1 hPa | 0 mm | - | - | - |
| 1777581344 | 18.33° C | 67% | 1013.9 hPa | 0 mm | - | - | - |
| 1777581039 | 17.78° C | 66% | 1013.8 hPa | 0 mm | - | - | - |
| 1777580739 | 18.33° C | 66% | 1014.1 hPa | 0 mm | - | - | - |
| 1777580436 | 18.33° C | 64% | 1013.9 hPa | 0 mm | - | - | - |
| 1777580131 | 18.89° C | 64% | 1014.2 hPa | 0 mm | - | - | - |
| 1777579828 | 19.44° C | 66% | 1013.8 hPa | 0 mm | - | - | - |
| 1777579527 | 18.89° C | 65% | 1013.6 hPa | 0 mm | - | - | - |
| 1777579226 | 18.89° C | 65% | 1014.1 hPa | 0 mm | - | - | - |
| 1777578922 | 18.89° C | 66% | 1014.2 hPa | 0 mm | - | - | - |
| 1777578618 | 18.33° C | 65% | 1014.1 hPa | 0 mm | - | - | - |
| 1777578317 | 18.33° C | 66% | 1014 hPa | 0 mm | - | - | - |
| 1777578013 | 18.33° C | 65% | 1014.1 hPa | 0 mm | - | - | - |
* Rain latest hour (hover to see other rain measurements)
** Current wind speed in m/s (hover to see current wind gust speed)